Cloud_Cover
100 100 96 48 14 8 9 5 4 53 96 96 100 100 100 100 100 100 100 100 100 100 100 100 100 100 100 100 100 73 74 91 89 74 90 21 32 58 47 80 100 100 100 100 100 100 82 1 0 0 0 0 0 2
100 84 5 100 100 100 55 5 5 5 5 9 61 100 100 100 100 100 100 100 100 100 100 100 100 100 100 100 59 88 100 100 98 100 100 100 100 100 100 100 100 100 100 81 7 0 0 0 0 0 0 0 0 3
89 5 10 38 50 26 5 95 16 5 5 5 5 5 20 100 100 100 100 100 100 100 100 100 100 100 100 100 100 100 100 100 100 100 100 100 100 100 100 100 47 38 2 0 0 0 0 0 0 0 0 0 0 5
5 79 93 91 99 57 5 8 99 32 5 5 5 5 87 100 100 100 100 100 100 100 100 100 100 100 100 100 100 100 100 100 100 100 100 94 100 99 76 14 0 2 0 0 0 0 0 0 0 0 0 0 0 81
6 95 100 96 39 84 65 83 59 100 40 12 100 34 93 91 100 100 100 100 100 100 100 100 100 100 100 99 100 100 100 96 85 48 19 6 5 5 5 25 5 7 4 2 0 0 0 0 3 99 1 0 31 100
26 100 100 99 100 91 97 100 98 100 10 19 94 100 99 100 92 100 100 95 97 100 76 11 80 83 77 100 100 100 98 61 16 5 60 30 6 4 10 4 30 1 0 0 3 5 74 5 13 76 5 0 60 99
98 92 100 100 86 100 98 86 100 78 83 100 100 100 100 100 99 100 54 100 56 89 77 100 92 5 79 98 100 100 98 50 48 61 11 5 5 6 31 58 5 5 98 86 97 100 40 10 42 91 78 5 96 100
16 97 88 95 73 88 100 100 100 100 100 100 100 100 100 100 100 100 100 100 86 100 72 99 100 100 95 100 100 100 86 32 5 5 42 21 5 9 73 2 4 66 100 100 97 100 100 99 33 36 5 5 100 100
10 95 99 100 99 99 100 100 84 86 100 100 100 100 100 100 100 100 98 100 93 73 75 87 100 100 100 100 100 97 75 84 69 84 57 26 42 63 4 36 72 97 100 100 100 99 97 54 5 1 3 85 100 100
53 71 56 95 85 94 99 100 100 100 100 100 100 100 100 100 100 100 100 100 100 100 100 100 100 100 100 100 100 100 100 100 100 75 69 100 90 75 5 91 100 93 94 100 100 64 27 5 6 59 100 100 100 100
93 98 96 100 100 100 100 100 100 100 100 100 100 100 100 100 100 100 100 99 98 100 100 100 100 100 100 100 100 100 100 86 100 88 66 63 87 20 86 100 100 100 99 100 97 100 100 100 98 98 100 100 100 100
100 100 100 100 99 100 100 100 100 100 100 100 100 100 100 100 100 100 100 100 94 80 100 100 100 100 100 100 100 100 100 93 60 57 99 96 19 99 100 100 100 100 100 100 100 100 100 100 100 100 100 100 100 100
100 100 100 100 96 86 86 18 6 82 83 69 72 97 99 100 100 100 100 100 100 100 100 100 100 100 100 100 100 100 99 81 47 100 71 55 99 99 100 100 100 100 100 100 100 100 100 100 100 100 100 100 100 100
100 100 100 100 78 81 97 82 75 31 98 100 100 100 100 100 100 99 100 70 82 91 100 100 100 100 100 100 98 98 52 58 96 99 97 99 100 100 100 100 100 100 100 100 100 100 100 100 100 100 100 100 100 100
99 100 100 100 100 100 74 72 98 100 100 100 100 100 100 100 84 97 100 100 100 100 100 100 100 100 100 83 100 56 95 100 100 100 99 100 100 100 100 100 100 100 100 100 100 100 100 100 100 100 100 100 100 100
79 84 71 100 100 92 38 46 91 92 44 86 84 100 100 100 100 100 98 100 88 85 46 70 98 99 51 11 93 92 100 100 100 99 92 100 100 100 100 100 100 100 100 100 100 100 100 100 100 100 100 100 100 100
91 35 99 100 100 99 91 78 80 100 98 99 97 99 100 100 100 100 99 97 85 24 97 90 100 74 28 81 54 100 100 100 100 100 94 100 100 100 100 100 100 100 100 100 100 100 100 100 100 100 100 100 100 99
28 5 12 63 70 89 35 44 99 100 82 90 94 97 100 92 100 99 100 59 40 21 46 69 20 5 16 37 100 100 100 100 100 100 100 100 100 100 100 100 100 100 100 100 100 100 100 100 100 100 100 100 100 100
23 7 7 13 48 70 93 95 75 95 78 91 83 99 92 86 96 36 99 100 58 60 99 100 100 41 45 96 100 100 100 100 100 100 100 70 100 100 100 100 100 100 99 98 100 100 100 100 96 99 99 94 100 100
5 10 15 48 68 32 94 41 84 100 97 70 95 100 100 100 96 100 100 100 100 96 98 92 28 30 100 100 100 100 100 100 100 100 100 99 94 100 100 99 99 75 81 91 100 100 100 100 100 92 79 47 94 100
5 5 9 12 52 91 54 15 66 94 100 92 93 100 99 100 100 100 100 100 100 100 100 100 85 99 100 99 100 100 100 100 100 97 100 100 100 100 100 100 100 100 99 97 88 100 100 100 99 75 48 68 54 50
5 10 66 48 33 11 62 100 51 80 62 90 83 68 100 100 98 95 100 100 95 80 100 97 99 100 92 88 79 67 100 100 100 100 89 89 97 100 100 100 98 100 100 100 100 96 100 98 83 81 59 66 81 100
18 49 90 74 66 10 6 78 100 100 91 98 91 100 96 79 95 90 99 100 100 100 86 99 100 100 100 76 65 30 100 100 100 100 100 100 100 88 100 100 94 100 100 100 92 100 85 69 100 74 55 62 99 100
16 49 73 77 41 74 32 91 100 100 100 100 100 63 33 83 93 100 87 99 100 100 100 100 100 100 92 85 66 100 97 100 100 100 100 100 100 93 93 100 69 96 100 100 88 98 88 96 90 79 87 76 86 100
55 38 52 69 61 67 95 100 100 100 100 100 100 100 100 100 100 88 94 94 98 86 100 100 100 100 100 100 100 100 100 100 97 86 94 100 85 100 100 100 100 100 100 100 100 100 100 96 97 81 99 99 74 82
34 18 50 77 63 85 92 100 100 100 100 100 100 100 100 100 100 78 100 100 100 100 99 99 100 100 98 100 97 97 100 100 100 93 82 96 99 100 100 100 100 96 100 100 100 100 100 100 99 87 86 73 70 77
5 15 5 5 5 79 49 71 95 100 100 100 100 100 100 100 100 100 100 100 100 100 100 100 100 100 100 99 100 99 100 83 89 68 62 90 100 100 100 96 84 98 100 100 100 100 100 99 99 92 99 99 87 70
5 5 5 5 56 91 97 57 55 75 94 100 100 100 100 100 100 100 100 100 100 100 100 100 100 99 100 100 94 96 100 86 66 78 100 100 100 96 98 100 100 100 100 100 97 84 88 98 100 100 100 100 100 93
22 5 5 5 30 57 69 5 13 53 54 84 99 100 100 100 100 100 100 100 100 100 100 100 100 100 100 100 100 99 100 76 100 100 100 85 78 79 72 69 87 90 100 100 100 100 100 100 100 100 100 100 100 100
5 19 5 80 22 5 6 5 5 5 2 18 23 80 99 100 100 100 100 100 100 100 100 100 100 100 100 100 100 100 100 100 100 91 100 99 99 95 92 95 92 63 72 95 99 100 100 100 96 84 94 100 100 100
7 5 5 32 53 5 5 25 52 31 73 99 94 100 97 90 99 100 100 100 100 100 100 100 100 100 100 100 100 100 100 100 92 96 95 96 94 95 99 97 99 89 77 98 91 82 99 100 99 84 84 100 100 100
77 23 5 5 5 5 5 46 8 93 95 100 90 81 92 100 96 19 100 100 100 100 100 100 100 100 100 100 100 100 100 100 99 100 99 92 96 77 81 74 76 92 83 94 95 84 92 100 100 99 100 100 100 100
79 67 86 47 13 5 5 56 15 88 100 96 94 92 74 98 82 7 80 100 100 100 100 100 100 100 100 100 100 100 100 100 95 51 63 71 90 59 66 71 79 83 88 100 100 95 93 100 100 99 100 96 100 100